Terug naar catalogus

STARLINK-34731

ActiefCommunicatieVLEO
NORAD 65029·PAYLOAD·🇺🇸 United States

Gelanceerd Jul 30, 2025 vanaf Cape Canaveral Space Force Station

Loading…

Volgende Passages (komende 24 uur)

TLE

VersSource: CelesTrak SupGP

Epoch: Sep 14, 2026, 21:07 UTC

1 65029C 25161Q   26257.88034722 -.00039256  00000+0 -11599-2 0  2573
2 65029  53.1573 131.6856 0001265  81.1911  98.1438 15.34408062    10

Volg STARLINK-34731 in realtime met AllMySat

Download on the App Store